Cairns, Australia

2:14 AM AEST on August 23, 2017 (GMT +1000)
Cairns International

Weather History for YBCS - January, 2012

Change the Weather History Date:

Friday, January 20, 2012

  Actual Average Record
Temperature  
Mean Temperature 80 °F -  
Max Temperature 89 °F 88 °F 93 °F (2008)
Min Temperature 72 °F 74 °F 32 °F (2004)
Cooling Degree Days 16    
Growing Degree Days 30 (Base 50)    
Moisture  
Dew Point 74 °F    
Average Humidity 80    
Maximum Humidity 100    
Minimum Humidity 49    
Precipitation  
Precipitation 0.51 in 0.54 in - ()
Sea Level Pressure  
Sea Level Pressure 29.75 in    
Wind  
Wind Speed 8 mph ()    
Max Wind Speed 17 mph    
Max Gust Speed -    
Visibility 6.4 miles    
Events Rain    
Averages and records for this station are not official NWS values.
T = Trace of Precipitation, MM = Missing Value Source: Averaged Metar Reports

Daily Weather History Graph

Daily Weather History Graph

Search for Another Location

Airport or City:

Trip Planner

Search our weather history database for the weather conditions in past years. The results will help you decide how hot, cold, wet, or windy it might be!

Date:

Astronomy

Jan. 20, 2012 Rise Set
Actual Time 5:58 AM AEST 6:57 PM AEST
Civil Twilight 5:34 AM AEST 7:20 PM AEST
Nautical Twilight 5:07 AM AEST 7:48 PM AEST
Astronomical Twilight 4:38 AM AEST 8:16 PM AEST
Moon 2:39 AM AEST (1/20) 4:07 PM AEST (1/20)
Length of Visible Light 13h 45m
Length of Day
12h 59m
Waning Crescent, 13% of the Moon is Illuminated
Jan 20
Waning Crescent
Jan 23
New
Jan 31
First Quarter
Feb 8
Full
Feb 15
Last Quarter

Hourly Weather History & Observations

Time (AEST) Temp. Heat Index Dew Point Humidity Pressure Visibility Wind Dir Wind Speed Gust Speed Precip Events Conditions
12:00 AM 80 °F - 77 °F 87% 29.79 in 19 mi South 8.1 mph - -   Partly Cloudy
12:00 AM 80.6 °F 87.1 °F 77.0 °F 89% 29.77 in 6.2 mi South 8.1 mph - N/A   Mostly Cloudy
12:30 AM 80.6 °F 89.3 °F 80.6 °F 100% 29.77 in 6.2 mi South 8.1 mph - N/A   Mostly Cloudy
1:00 AM 81 °F - 80 °F 98% 29.77 in - South 6.9 mph - -  
1:00 AM 80.6 °F 89.3 °F 80.6 °F 100% 29.74 in 6.2 mi South 6.9 mph - N/A   Scattered Clouds
1:30 AM 80.6 °F 85.4 °F 73.4 °F 79% 29.77 in 6.2 mi SSE 8.1 mph - N/A   Scattered Clouds
1:40 AM 77.0 °F - 75.2 °F 94% 29.77 in 2.5 mi SE 12.7 mph - N/A Rain Light Rain Showers
2:00 AM 75.2 °F - 73.4 °F 94% 29.77 in 3.7 mi South 11.5 mph - N/A Rain Light Rain Showers
2:13 AM 75.2 °F - 71.6 °F 89% 29.77 in 6.2 mi South 8.1 mph - N/A   Mostly Cloudy
2:30 AM 77.0 °F - 71.6 °F 83% 29.74 in 6.2 mi SSW 6.9 mph - N/A   Mostly Cloudy
3:00 AM 76 °F - 70 °F 77% 29.75 in 16 mi South 6.9 mph - -   Partly Cloudy
3:00 AM 77.0 °F - 69.8 °F 78% 29.74 in 6.2 mi South 6.9 mph - N/A   Mostly Cloudy
3:30 AM 75.2 °F - 71.6 °F 89% 29.74 in 6.2 mi SSE 3.5 mph - N/A   Mostly Cloudy
4:00 AM 76 °F - 72 °F 84% 29.77 in - ESE 4.6 mph - -  
4:00 AM 75.2 °F - 71.6 °F 89% 29.77 in 6.2 mi ESE 4.6 mph - N/A   Mostly Cloudy
4:30 AM 75.2 °F - 73.4 °F 94% 29.77 in 6.2 mi SE 2.3 mph - N/A   Mostly Cloudy
4:58 AM 75.2 °F - 73.4 °F 94% 29.80 in 2.5 mi North 6.9 mph - N/A Rain Light Rain Showers
5:00 AM 75.2 °F - 73.4 °F 94% 29.80 in 2.5 mi North 8.1 mph - N/A Rain Light Rain Showers
5:15 AM 73.4 °F - 73.4 °F 100% 29.83 in 1.2 mi ENE 10.4 mph - N/A Rain Rain Showers
5:30 AM 73.4 °F - 71.6 °F 94% 29.80 in 1.2 mi ENE 6.9 mph - N/A Rain Rain Showers
6:00 AM 73 °F - 72 °F 95% 29.81 in 4 mi West 5.8 mph - - Rain Light Rain
6:00 AM 73.4 °F - 71.6 °F 94% 29.80 in 3.7 mi West 5.8 mph - N/A Rain Light Rain
6:30 AM 73.4 °F - 71.6 °F 94% 29.80 in 5.0 mi West 5.8 mph - N/A   Overcast
7:00 AM 73 °F - 72 °F 98% 29.81 in - West 3.5 mph - -  
7:00 AM 73.4 °F - 73.4 °F 100% 29.80 in 5.0 mi West 3.5 mph - N/A   Overcast
7:30 AM 73.4 °F - 73.4 °F 100% 29.80 in 6.2 mi Calm Calm - N/A   Overcast
8:00 AM 75.2 °F - 73.4 °F 94% 29.80 in 6.2 mi WNW 2.3 mph - N/A   Mostly Cloudy
8:30 AM 77.0 °F - 75.2 °F 94% 29.77 in 6.2 mi WNW 5.8 mph - N/A   Mostly Cloudy
9:00 AM 79 °F - 74 °F 79% 29.80 in 9 mi Calm Calm - -   Partly Cloudy
9:00 AM 78.8 °F - 73.4 °F 83% 29.80 in 6.2 mi Calm Calm - N/A   Mostly Cloudy
9:30 AM 82.4 °F 88.2 °F 73.4 °F 74% 29.80 in 6.2 mi SSE 8.1 mph - N/A   Mostly Cloudy
10:00 AM 82 °F - 72 °F 65% 29.81 in - SSE 8.1 mph - -  
10:00 AM 82.4 °F 87.2 °F 71.6 °F 70% 29.80 in 6.2 mi SSE 8.1 mph - N/A   Mostly Cloudy
10:30 AM 82.4 °F 88.2 °F 73.4 °F 74% 29.77 in 6.2 mi South 8.1 mph - N/A   Mostly Cloudy
11:30 AM 86.0 °F 93.4 °F 73.4 °F 66% 29.74 in 6.2 mi SSE 11.5 mph - N/A   Mostly Cloudy
12:00 PM 87 °F - 74 °F 57% 29.75 in 16 mi SSE 11.5 mph - -   Partly Cloudy
12:00 PM 87.8 °F 95.6 °F 73.4 °F 62% 29.74 in 6.2 mi SSE 11.5 mph - N/A   Mostly Cloudy
12:30 PM 87.8 °F 95.6 °F 73.4 °F 62% 29.71 in 6.2 mi SE 12.7 mph - N/A   Mostly Cloudy
1:00 PM 89 °F - 72 °F 49% 29.73 in - SE 16.1 mph - -  
1:00 PM 89.6 °F 96.2 °F 71.6 °F 55% 29.71 in 6.2 mi SE 16.1 mph - N/A   Mostly Cloudy
1:30 PM 89.6 °F 96.2 °F 71.6 °F 55% 29.71 in 6.2 mi ESE 15.0 mph - N/A   Mostly Cloudy
2:00 PM 89.6 °F 98.2 °F 73.4 °F 59% 29.71 in 6.2 mi ESE 12.7 mph - N/A   Mostly Cloudy
2:30 PM 89.6 °F 99.8 °F 75.2 °F 62% 29.68 in 6.2 mi ESE 15.0 mph - N/A   Mostly Cloudy
3:00 PM 88 °F - 74 °F 55% 29.70 in 16 mi SE 16.1 mph - -   Partly Cloudy
3:00 PM 87.8 °F 95.6 °F 73.4 °F 62% 29.68 in 6.2 mi SE 16.1 mph - N/A   Mostly Cloudy
3:30 PM 87.8 °F 95.6 °F 73.4 °F 62% 29.68 in 6.2 mi ESE 13.8 mph - N/A   Mostly Cloudy
4:00 PM 88 °F - 74 °F 55% 29.70 in - ESE 13.8 mph - -  
4:00 PM 87.8 °F 95.6 °F 73.4 °F 62% 29.68 in 6.2 mi ESE 13.8 mph - N/A   Mostly Cloudy
4:30 PM 87.8 °F 95.6 °F 73.4 °F 62% 29.68 in 6.2 mi SE 15.0 mph - N/A   Scattered Clouds
5:00 PM 86.0 °F 93.4 °F 73.4 °F 66% 29.68 in 6.2 mi SE 15.0 mph - N/A   Scattered Clouds
5:30 PM 86.0 °F 93.4 °F 73.4 °F 66% 29.68 in 6.2 mi SE 16.1 mph - N/A   Scattered Clouds
6:00 PM 85 °F - 74 °F 62% 29.71 in - SE 12.7 mph - -  
6:00 PM 84.2 °F 90.9 °F 73.4 °F 70% 29.71 in 6.2 mi SE 12.7 mph - N/A   Scattered Clouds
6:30 PM 84.2 °F 90.9 °F 73.4 °F 70% 29.71 in 6.2 mi SSE 15.0 mph - N/A   Scattered Clouds
7:00 PM 83 °F - 74 °F 68% 29.74 in - SSE 15.0 mph - -  
7:00 PM 84.2 °F 90.9 °F 73.4 °F 70% 29.71 in 6.2 mi SSE 15.0 mph - N/A Rain Light Rain Showers
7:30 PM 82.4 °F 89.5 °F 75.2 °F 79% 29.74 in 6.2 mi SE 16.1 mph - N/A   Scattered Clouds
8:00 PM 80.6 °F 86.2 °F 75.2 °F 84% 29.74 in 6.2 mi SE 10.4 mph - N/A   Mostly Cloudy
8:30 PM 80.6 °F 86.2 °F 75.2 °F 84% 29.77 in 6.2 mi SSE 8.1 mph - N/A   Mostly Cloudy
9:00 PM 81 °F - 74 °F 74% 29.77 in 16 mi South 8.1 mph - -   Mostly Cloudy
9:00 PM 80.6 °F 85.4 °F 73.4 °F 79% 29.77 in 6.2 mi South 8.1 mph - N/A   Mostly Cloudy
9:23 PM 80.6 °F 85.4 °F 73.4 °F 79% 29.77 in 2.5 mi SSE 8.1 mph - N/A Rain Light Rain Showers
9:29 PM 77.0 °F - 75.2 °F 94% 29.77 in 0.6 mi SE 17.3 mph - N/A Rain Light Rain Showers
9:47 PM 77.0 °F - 75.2 °F 94% 29.77 in 3.1 mi SSE 10.4 mph - N/A Rain Light Rain Showers
10:00 PM 76 °F - 75 °F 97% 29.78 in - South 8.1 mph - -  
10:00 PM 77.0 °F - 75.2 °F 94% 29.77 in 6.2 mi South 8.1 mph - N/A Rain Light Rain Showers
10:30 PM 77.0 °F - 75.2 °F 94% 29.77 in 6.2 mi South 8.1 mph - N/A Rain Light Rain
11:00 PM 77.0 °F - 75.2 °F 94% 29.74 in 6.2 mi South 9.2 mph - N/A   Mostly Cloudy
11:30 PM 77.0 °F - 75.2 °F 94% 29.74 in 6.2 mi SE 6.9 mph - N/A   Mostly Cloudy